Overview Statistics Trail Chart Weather Telemetry Raw packets
 

This is the latest recevied weather packets stored in our database for station/object KA1JKB. If no packets are shown the sender has not sent any weather packets the latest 10 day(s).

<< 73 74 75 76 77 78 79 >>
Time Temp. Humidity Pressure Rain* Wind** Luminosity Snow
1787907645 11.11° C 99% 1016.9 hPa 0 mm - 0 W/m² -
1787907344 11.67° C 99% 1017.1 hPa 0 mm - 0 W/m² -
1787907040 12.22° C 99% 1017 hPa 0 mm - 0 W/m² -
1787906737 12.22° C 99% 1017.2 hPa 0 mm - 0 W/m² -
1787906433 12.78° C 99% 1016.9 hPa 0 mm - 0 W/m² -
1787906132 12.78° C 99% 1016.9 hPa 0 mm - 0 W/m² -
1787905827 12.78° C 99% 1016.8 hPa 0 mm - 0 W/m² -
1787905522 12.78° C 99% 1016.8 hPa 0 mm - 0 W/m² -
1787905219 13.33° C 99% 1016.7 hPa 0 mm - 0 W/m² -
1787904917 12.78° C 99% 1016.5 hPa 0 mm - 0 W/m² -
1787904615 12.78° C 99% 1016.6 hPa 0 mm - 0 W/m² -
1787904313 13.33° C 99% 1016.4 hPa 0 mm - 0 W/m² -
1787904009 13.33° C 99% 1016.5 hPa 0 mm - 0 W/m² -
1787903705 13.89° C 99% 1016.3 hPa 0 mm - 0 W/m² -
1787903401 13.89° C 99% 1016.2 hPa 0 mm - 0 W/m² -
1787903096 13.33° C 99% 1016.3 hPa 0 mm - 0 W/m² -
1787902793 12.78° C 99% 1016.4 hPa 0 mm - 0 W/m² -
1787902488 12.78° C 99% 1016.4 hPa 0 mm - 0 W/m² -
1787902184 12.78° C 99% 1016.2 hPa 0 mm - 0 W/m² -
1787901878 12.78° C 99% 1016.5 hPa 0 mm - 0 W/m² -
1787901574 12.78° C 99% 1016.1 hPa 0 mm - 0 W/m² -
1787901270 12.78° C 98% 1016.2 hPa 0 mm - 0 W/m² -
1787900965 12.78° C 98% 1016.1 hPa 0 mm - 0 W/m² -
1787900660 12.78° C 97% 1016.2 hPa 0 mm - 0 W/m² -
1787900359 12.78° C 97% 1016 hPa 0 mm - 0 W/m² -

* Rain latest hour (hover to see other rain measurements)
** Current wind speed in m/s (hover to see current wind gust speed)